EST,Max TemperatureF,Mean TemperatureF,Min TemperatureF,Max Dew PointF,MeanDew PointF,Min DewpointF,Max Humidity, Mean Humidity, Min Humidity, Max Sea Level PressureIn, Mean Sea Level PressureIn, Min Sea Level PressureIn, Max VisibilityMiles, Mean VisibilityMiles, Min VisibilityMiles, Max Wind SpeedMPH, Mean Wind SpeedMPH, Max Gust SpeedMPH,PrecipitationIn, CloudCover, Events, WindDirDegrees
2012-11-1,56,49,43,41,39,37,87,71,51,29.56,29.53,29.49,10,10,10,9,5,,0.00,6,,208
2012-11-2,53,47,42,40,37,34,87,70,53,29.59,29.55,29.51,10,10,10,10,6,,0.02,7,Rain,260
2012-11-3,53,47,42,36,33,30,77,63,47,29.76,29.68,29.59,10,10,10,16,8,25,0.00,7,,282
2012-11-4,52,45,38,33,31,28,71,60,45,29.94,29.85,29.76,10,10,10,16,10,22,0.00,4,,289
2012-11-5,41,34,28,30,23,16,77,58,43,30.12,30.01,29.94,10,10,10,13,7,,0.00,6,,325
2012-11-6,42,34,27,22,18,12,74,57,29,30.23,30.19,30.13,10,10,10,8,5,,0.00,1,,281
2012-11-7,37,34,30,29,18,12,89,53,35,30.20,30.02,29.83,10,8,1,22,13,30,0.02,7,Rain-Snow,15
2012-11-8,39,36,32,36,33,29,93,88,83,29.80,29.72,29.66,10,6,1,22,18,33,0.32,8,Rain-Snow,355
2012-11-9,51,44,36,33,27,19,81,57,31,30.06,29.92,29.75,10,10,10,15,11,23,0.00,2,,288
2012-11-10,54,44,34,32,29,21,90,64,29,30.47,30.27,30.06,10,10,10,13,6,,0.00,1,,277
2012-11-11,56,45,34,46,40,32,91,80,67,30.50,30.45,30.39,10,10,7,10,3,,0.00,4,,172
2012-11-12,67,55,43,56,48,42,97,77,45,30.45,30.37,30.22,10,10,7,12,7,16,0.00,5,Fog,169
2012-11-13,60,50,40,58,46,27,95,84,59,30.43,30.22,30.10,10,9,2,16,10,28,0.18,8,Rain,273
2012-11-14,46,39,32,25,22,19,68,51,37,30.55,30.50,30.44,10,10,10,14,9,,0.00,1,,7
2012-11-15,44,37,30,31,26,22,89,71,47,30.48,30.40,30.32,10,10,10,10,7,16,0.00,4,,356
2012-11-16,44,37,30,28,27,24,86,70,46,30.43,30.33,30.30,10,10,10,7,4,,0.00,5,,335
2012-11-17,46,37,27,30,27,25,95,75,45,30.67,30.59,30.44,10,10,5,7,3,,0.00,0,,277
2012-11-18,45,35,25,27,23,15,95,67,29,30.74,30.69,30.64,10,10,5,9,3,,0.00,1,,7
2012-11-19,47,36,25,34,26,18,97,73,46,30.63,30.47,30.28,10,10,8,7,5,,0.00,2,Fog,326
2012-11-20,49,38,27,30,25,17,97,68,29,30.27,30.19,30.15,10,10,8,6,3,,0.00,5,Fog,316
2012-11-21,49,41,33,37,32,25,93,72,57,30.27,30.23,30.17,10,10,8,9,5,,0.00,6,,359
2012-11-22,54,42,31,40,35,29,100,86,55,30.28,30.21,30.13,10,8,0,8,3,,0.00,2,Fog,234
2012-11-23,54,42,30,48,37,30,100,93,65,30.12,29.91,29.63,10,4,0,12,3,,0.00,4,Fog,168
2012-11-24,45,38,31,44,28,14,97,63,33,29.60,29.55,29.48,10,8,5,22,9,32,0.00,5,Rain,263
2012-11-25,37,33,29,20,14,6,66,47,27,29.83,29.71,29.61,10,10,10,21,13,30,0.00,3,,257
2012-11-26,43,34,25,25,21,18,79,62,36,30.24,30.01,29.83,10,10,10,17,6,25,0.00,2,,256
2012-11-27,36,30,23,33,27,20,100,87,70,30.33,30.28,30.24,10,7,2,8,2,,0.00,7,Rain-Snow,309
2012-11-28,34,29,23,24,21,19,84,68,55,30.22,30.17,30.12,10,10,5,13,7,,0.00,7,Snow,359
2012-11-29,42,34,27,23,19,16,76,55,36,30.23,30.15,30.10,10,10,10,14,8,21,0.00,3,Snow,251
2012-11-30,34,30,25,21,5,-3,60,38,27,30.58,30.46,30.23,10,10,10,15,10,21,0.00,7,Snow,343